sat.trackr.live / text

‹ back to catalog

STARLINK-5817

NORAD 55779 · 2023-028AQ

PAYLOAD ACTIVE UNKNOWN

§ Identity

Operator
Country
US
Launch date
2023-03-03
Launch site
AFWTR
Launch vehicle
Mass (kg)
RCS (m²)

Purposes: comms

External: N2YO · Heavens-Above · Gunter

§ Orbital elements

Epoch: 2026-05-25T00:19:08.159232Z

Period
96.11 min
Inclination
70.0007°
Eccentricity
0.0002638
Mean motion
14.98331181 rev/d
Perigee alt
570.2 km
Apogee alt
573.9 km
Semi-major
6,950.2 km
B*
6.8981e-6
RAAN
11.8169°
Arg perigee
270.7897°
Mean anomaly
89.2959°
Rev number
17,846

§ Raw data

STARLINK-58171 55779U 23028AQ  26145.01328888 -.00000011  00000+0  68981-5 0  99932 55779  70.0007  11.8169 0002638 270.7897  89.2959 14.98331181178461

JSON: /api/v1/satellites/55779 · /tle

For live sub-satellite position, see the globe view (requires WebGL).

§ Visibility from observer

Set your observer location to see the next 7 days of passes ≥ 10°. The values pass through the URL so the page stays shareable.

No JS? Fill the form by hand. The geolocation button needs JavaScript.